667  
ASUS42 KILM 151313  
RWRILM  
RWRILM  
REGIONAL HOURLY WEATHER ROUNDUP  
NATIONAL WEATHER SERVICE WILMINGTON NC  
900 AM EDT WED AUG 15 2018  
 
NOTE: "FAIR" INDICATES FEW OR NO CLOUDS BELOW 12,000 FEET WITH NO  
SIGNIFICANT WEATHER AND/OR S TO VISIBILITY
.  
   
..............WFO WILMINGTON COUNTY WARNING AREA............
 
 
   
.....COASTAL NC AND SC COUNTIES...
 
 
 
CITY SKY/WX TMP DP RH WIND PRES REMARKS
 
WILMINGTON FAIR 80 73 79 SW8 30.07R  
N MYRTLE BEACH PTSUNNY 79 75 87 SW5 30.08R  
MYRTLE BEACH FAIR 78 75 90 SW5 30.09R  
   
.....INLAND NC AND SC COUNTIES....
 
 
 
CITY SKY/WX TMP DP RH WIND PRES REMARKS
 
LUMBERTON FAIR 76 71 85 CALM 30.07R  
ELIZABETHTOWN FAIR 76 71 87 CALM 30.08R  
WHITEVILLE FAIR 76 73 88 CALM 30.07R  
FLORENCE FAIR 78 72 81 CALM 30.07R  
DARLINGTON FAIR 78 73 84 CALM 30.07R  
KINGSTREE PTSUNNY 73 72 94 CALM 30.08R  
HARTSVILLE FAIR 77 72 83 CALM 30.07R  
BENNETTSVILLE FAIR 75 72 88 CALM 30.06S  
CONWAY FAIR 75 75 100 SW6 30.08R FOG  
GEORGETOWN FAIR 77 77 100 W6 30.09R  
MARION FAIR 73 70 88 CALM 30.07R FOG  
   
...................REST OF NORTH CAROLINA...................
 
 
   
........EASTERN NC......
 
 
 
CITY SKY/WX TMP DP RH WIND PRES REMARKS
 
CAPE HATTERAS FAIR 82 76 81 SW7 30.06R  
JACKSONVILLE FAIR 78 74 87 VRB5 30.08R  
MOREHEAD CITY FAIR 80 75 84 W7 30.06R  
KENANSVILLE FAIR 77 72 83 SW5 30.08R  
NEW BERN FAIR 76 74 93 SW6 30.08R  
ELIZABETH CITY FAIR 79 73 82 W3 30.05R  
   
........CENTRAL NC......
 
 
 
CITY SKY/WX TMP DP RH WIND PRES REMARKS
 
RALEIGH DURHAM FAIR 76 70 82 CALM 30.08R  
ROCKY MOUNT FAIR 77 73 87 SW5 30.06R  
ROANOKE RAPIDS NOT AVBL  
FAYETTEVILLE FAIR 76 72 87 CALM 30.07R  
HOFFMAN PTSUNNY 72 72 100 CALM 30.08R  
   
........WESTERN NC......
 
 
 
CITY SKY/WX TMP DP RH WIND PRES REMARKS
 
CHARLOTTE FAIR 79 69 71 CALM 30.10R  
GREENSBORO FAIR 76 65 68 NE6 30.09R  
HICKORY NOT AVBL  
BOONE NOT AVBL  
ASHEVILLE NOT AVBL  
   
....................REST OF SOUTH CAROLINA..................
 
 
   
........EASTERN SC......
 
 
 
CITY SKY/WX TMP DP RH WIND PRES REMARKS
 
CHARLESTON FAIR 80 75 84 W6 30.08R  
BEAUFORT MCAS FAIR 80 74 81 W6 30.08R  
HILTON HEAD SUNNY 81 75 83 SW6 30.09R  
   
........CENTRAL SC......
 
 
 
CITY SKY/WX TMP DP RH WIND PRES REMARKS
 
COLUMBIA FAIR 77 73 87 SW3 30.07R  
ORANGEBURG FAIR 73 70 90 SW3 30.08R  
SUMTER SHAW FAIR 77 70 78 CALM 30.06R  
   
........WESTERN SC......
 
 
 
CITY SKY/WX TMP DP RH WIND PRES REMARKS
 
GREENVILLE NOT AVBL  
ROCK HILL FAIR 74 70 87 CALM 30.10R  
ANDERSON FAIR 75 70 84 CALM 30.10R  
CLEMSON NOT AVBL  
GREENWOOD FAIR 73 70 90 CALM 30.11R  
 
   
..................COASTAL AND OFFSHORE REPORTS...............
 
 
   
...............LOCAL PIERS AND NC RESERVE.............
 
 
 
STATION/POSITION TIME SKY/WX TEMP WIND PRES VSBY
 
AIR SEA DIR/SP/G  
(UTC) (F) (DEG/KT/KT) (MB) (MI)  
JOHNY MRCER PIER 1236 80 81 240/ 7/ 10 1018.3R  
NC RESRV MASNBRO NOT AVBL  
OCEAN CREST PIER NOT AVBL  
SPRINGMAID PIER 1236 1021.9R  
 
   
...............COASTAL AND OFFSHORE BUOYS.............
 
 
 
STATION/POSITION TIME SKY/WX TEMP WIND PRES VSBY
 
AIR SEA DIR/SP/G  
(UTC) (F) (DEG/KT/KT) (MB) (MI)  
DIMNDSHOAL 41025 1250 81 84 260/ 8/ 10 1018.6R  
WVE H/P(F/S)= 4/ 6 SWL H/P/D(F/S/D)= 3/200/ 6  
 
CAPE LOOKOUT 1300 250/ 8/ 11 1018.4R  
ONSLOW BAY 41036 NOT AVBL  
ONSLOW BAY 41064 1208 82 83 280/ 8/ 10 1018.1R  
ONSLOW BAY 41159 1300 83 N/A  
WVE H/P(F/S)= 3/ 6  
 
MASNBO INL 41110 1300 80 N/A  
WVE H/P(F/S)= 3/ 5  
 
WILM HARBR 41108 1300 83 N/A  
WVE H/P(F/S)= 3/ 5  
 
27SE WRITB 41037 1208 81 81 250/ 4/ 8 1017.9R  
FRYING PAN 41013 1250 80 83 210/ 14/ 21 1018.5R  
WVE H/P(F/S)= 3/ 6  
 
SUNST NRSH 41024 1208 80 83 260/ 6/ 10 1017.6R  
CAPRS NRSH 41029 1208 80 81 290/ 6/ 8 1017.5R  
EDISTO 41004 1250 82 84 230/ 10/ 14 1018.6R  
WVE H/P(F/S)= 4/ 6 SWL H/P/D(F/S/D)= 3/200/ 6  
 
   
.........OFFSHORE BUOYS BEYOND 100 NM OFFSHORE........
 
   
....IN A TRIANGLE---HAT TO BERMUDA TO BAHAMAS TO HAT..
 
 
 
 
STATION/POSITION TIME SKY/WX TEMP WIND PRES VSBY
 
AIR SEA DIR/SP/G  
(UTC) (F) (DEG/KT/KT) (MB) (MI)  
150E HAT 41001 NOT AVBL  
W BERMUDA 41048 1250 83 250/ 10/ 12 1021.7R  
WVE H/P(F/S)= 4/ 7 SWL H/P/D(F/S/D)= 3/170/ 7  
 
ATLANTIC S 41049 1250 84 30/ 10/ 12 1020.8R  
WVE H/P(F/S)= 3/ 8 SWL H/P/D(F/S/D)= 3/110/ 8  
 
E BAHAMAS 41046 1250 84 80/ 12/ 16 1020.3S  
WVE H/P(F/S)= 5/ 8 SWL H/P/D(F/S/D)= 3/120/ 8  
 
NE BAHAMAS 41047 1250 110/ 10/ 12 1021.9R  
WVE H/P(F/S)= 4/ 8 SWL H/P/D(F/S/D)= 3/150/ 8  
 
120E CANVRL41010 1250 84 84 170/ 8/ 10 1020.4R  
WVE H/P(F/S)= 3/ 7 SWL H/P/D(F/S/D)= 3/110/ 7  
 
END  
 
 
CLICK HERE TO GO TO PREVIOUS BULLETINS.

The Nexlab NC Page
The Nexlab SC Page Main Text Page